When you browse on this site, cookies collect data to enhance your experience and personalize the content and advertising you see.
Visit our Privacy Policy to learn more. By continuing to use the site, you agree to this use of cookies and data.
  • In Sweden
  • List of Countries
  • For 7 days
  • Water Temperature
  • Weather Map
  • Weather Widgets
  • user-avatar
    Login

    Hourly Weather Ashdod

    Today, 23 January, Thursday

    Time Temperature Precipitation Wind Pressure Humidity
    00:00 +13°C° 0 mm 1 mps 765 mmHg 68%
    01:00 +12°C° 0 mm 1 mps 765 mmHg 68%
    02:00 +12°C° 0 mm 1 mps 764 mmHg 68%
    03:00 +12°C° 0 mm 2 mps 764 mmHg 69%
    04:00 +12°C° 0 mm 2 mps 764 mmHg 70%
    05:00 +12°C° 0 mm 2 mps 764 mmHg 72%
    06:00 +11°C° 0 mm 3 mps 765 mmHg 72%
    07:00 +12°C° 0 mm 3 mps 765 mmHg 72%
    08:00 +12°C° 0 mm 4 mps 765 mmHg 72%
    09:00 +13°C° 0 mm 4 mps 765 mmHg 70%
    10:00 +13°C° 0 mm 5 mps 765 mmHg 68%
    11:00 +14°C° 0 mm 5 mps 765 mmHg 65%
    12:00 +14°C° 0.1 mm 6 mps 765 mmHg 67%
    13:00 +14°C° 0.1 mm 7 mps 765 mmHg 69%
    14:00 +14°C° 0.1 mm 7 mps 764 mmHg 70%
    15:00 +14°C° 0.1 mm 7 mps 764 mmHg 71%
    16:00 +12°C° 0.1 mm 7 mps 764 mmHg 72%
    17:00 +12°C° 0.1 mm 7 mps 764 mmHg 73%
    18:00 +13°C° 0.1 mm 6 mps 764 mmHg 73%
    19:00 +13°C° 0.1 mm 6 mps 764 mmHg 72%
    20:00 +11°C° 0.1 mm 6 mps 764 mmHg 72%
    21:00 +13°C° 0.2 mm 6 mps 763 mmHg 75%
    22:00 +12°C° 0.2 mm 7 mps 763 mmHg 77%
    23:00 +12°C° 0.2 mm 7 mps 763 mmHg 80%

    Tomorrow, 24 January, Friday

    Time Temperature Precipitation Wind Pressure Humidity
    00:00 +12°C° 0.3 mm 8 mps 762 mmHg 80%
    01:00 +12°C° 0.3 mm 9 mps 761 mmHg 80%
    02:00 +12°C° 0.3 mm 10 mps 760 mmHg 80%
    03:00 +12°C° 1 mm 11 mps 760 mmHg 80%
    04:00 +12°C° 1 mm 11 mps 760 mmHg 79%
    05:00 +12°C° 1 mm 12 mps 759 mmHg 79%
    06:00 +12°C° 1.1 mm 11 mps 760 mmHg 79%
    07:00 +12°C° 1.1 mm 10 mps 760 mmHg 79%
    08:00 +11°C° 1.1 mm 9 mps 761 mmHg 79%
    09:00 +12°C° 0.2 mm 10 mps 761 mmHg 74%
    10:00 +12°C° 0.2 mm 10 mps 762 mmHg 69%
    11:00 +12°C° 0.2 mm 11 mps 762 mmHg 64%
    12:00 +12°C° 0.1 mm 10 mps 762 mmHg 63%
    13:00 +12°C° 0.1 mm 10 mps 763 mmHg 62%
    14:00 +12°C° 0.1 mm 10 mps 763 mmHg 61%
    15:00 +11°C° 0.1 mm 10 mps 764 mmHg 61%
    16:00 +11°C° 0.1 mm 9 mps 764 mmHg 61%
    17:00 +10°C° 0.1 mm 9 mps 765 mmHg 61%
    18:00 +10°C° 0 mm 9 mps 765 mmHg 61%
    19:00 +10°C° 0 mm 8 mps 766 mmHg 60%
    20:00 +9°C° 0 mm 8 mps 767 mmHg 59%
    21:00 +9°C° 0 mm 7 mps 767 mmHg 61%
    22:00 +9°C° 0 mm 6 mps 767 mmHg 63%
    23:00 +8°C° 0 mm 5 mps 767 mmHg 65%

    Day after tomorrow, 25 January, Saturday

    Time Temperature Precipitation Wind Pressure Humidity
    00:00 +8°C° 0 mm 5 mps 767 mmHg 64%
    01:00 +8°C° 0 mm 5 mps 767 mmHg 63%
    02:00 +8°C° 0 mm 5 mps 767 mmHg 63%
    03:00 +9°C° 0 mm 5 mps 767 mmHg 63%
    04:00 +10°C° 0 mm 4 mps 767 mmHg 63%
    05:00 +10°C° 0 mm 4 mps 767 mmHg 63%
    06:00 +10°C° 0 mm 4 mps 768 mmHg 62%
    07:00 +10°C° 0 mm 3 mps 768 mmHg 61%
    08:00 +10°C° 0 mm 2 mps 769 mmHg 60%
    09:00 +12°C° 0 mm 2 mps 769 mmHg 57%
    10:00 +13°C° 0 mm 2 mps 769 mmHg 53%
    11:00 +14°C° 0 mm 2 mps 770 mmHg 49%
    12:00 +15°C° 0 mm 2 mps 769 mmHg 50%
    13:00 +14°C° 0 mm 3 mps 769 mmHg 50%
    14:00 +14°C° 0 mm 3 mps 769 mmHg 50%
    15:00 +13°C° 0 mm 3 mps 769 mmHg 53%
    16:00 +13°C° 0 mm 3 mps 769 mmHg 56%
    17:00 +12°C° 0 mm 3 mps 769 mmHg 59%
    18:00 +12°C° 0 mm 2 mps 769 mmHg 61%
    19:00 +12°C° 0 mm 2 mps 770 mmHg 62%
    20:00 +11°C° 0 mm 1 mps 770 mmHg 63%
    21:00 +11°C° 0 mm 1 mps 770 mmHg 65%
    22:00 +11°C° 0 mm 1 mps 770 mmHg 66%
    23:00 +10°C° 0 mm 1 mps 770 mmHg 68%

    26 January, Sunday

    Time Temperature Precipitation Wind Pressure Humidity
    00:00 +10°C° 0 mm 1 mps 770 mmHg 68%
    01:00 +10°C° 0 mm 1 mps 770 mmHg 68%
    02:00 +10°C° 0 mm 1 mps 770 mmHg 68%
    03:00 +9°C° 0 mm 2 mps 770 mmHg 67%
    04:00 +8°C° 0 mm 2 mps 769 mmHg 67%
    05:00 +8°C° 0 mm 2 mps 769 mmHg 66%
    06:00 +9°C° 0 mm 2 mps 770 mmHg 66%
    07:00 +11°C° 0 mm 1 mps 770 mmHg 65%
    08:00 +12°C° 0 mm 1 mps 771 mmHg 65%
    09:00 +13°C° 0 mm 1 mps 771 mmHg 61%
    10:00 +14°C° 0 mm 1 mps 770 mmHg 57%
    11:00 +14°C° 0 mm 1 mps 770 mmHg 53%
    12:00 +15°C° 0 mm 2 mps 770 mmHg 55%
    13:00 +15°C° 0 mm 2 mps 769 mmHg 56%
    14:00 +14°C° 0 mm 3 mps 769 mmHg 58%
    15:00 +15°C° 0 mm 2 mps 769 mmHg 62%
    16:00 +14°C° 0 mm 2 mps 769 mmHg 67%
    17:00 +13°C° 0 mm 1 mps 768 mmHg 71%
    18:00 +13°C° 0 mm 1 mps 769 mmHg 73%
    19:00 +12°C° 0 mm 1 mps 769 mmHg 75%
    20:00 +12°C° 0 mm 1 mps 769 mmHg 77%
    21:00 +12°C° 0 mm 1 mps 769 mmHg 77%
    22:00 +11°C° 0 mm 1 mps 769 mmHg 77%
    23:00 +11°C° 0 mm 1 mps 769 mmHg 77%

    27 January, Monday

    Time Temperature Precipitation Wind Pressure Humidity
    00:00 +11°C° 0 mm 1 mps 769 mmHg 77%
    01:00 +11°C° 0 mm 1 mps 768 mmHg 78%
    02:00 +11°C° 0 mm 1 mps 768 mmHg 78%
    03:00 +11°C° 0 mm 1 mps 768 mmHg 79%
    04:00 +10°C° 0 mm 1 mps 768 mmHg 79%
    05:00 +10°C° 0 mm 1 mps 767 mmHg 80%
    06:00 +11°C° 0 mm 1 mps 768 mmHg 78%
    07:00 +12°C° 0 mm 1 mps 768 mmHg 76%
    08:00 +13°C° 0 mm 1 mps 768 mmHg 75%
    09:00 +14°C° 0 mm 2 mps 768 mmHg 71%
    10:00 +15°C° 0 mm 2 mps 768 mmHg 67%
    11:00 +16°C° 0 mm 2 mps 768 mmHg 63%
    12:00 +17°C° 0 mm 2 mps 767 mmHg 62%
    13:00 +17°C° 0 mm 3 mps 767 mmHg 62%
    14:00 +18°C° 0 mm 3 mps 766 mmHg 61%
    15:00 +17°C° 0 mm 4 mps 766 mmHg 66%
    16:00 +15°C° 0 mm 4 mps 766 mmHg 71%
    17:00 +14°C° 0 mm 4 mps 766 mmHg 76%
    18:00 +14°C° 0 mm 4 mps 766 mmHg 77%
    19:00 +13°C° 0 mm 4 mps 766 mmHg 78%
    20:00 +13°C° 0 mm 4 mps 766 mmHg 79%
    21:00 +13°C° 0 mm 3 mps 766 mmHg 78%
    22:00 +13°C° 0 mm 3 mps 765 mmHg 76%
    23:00 +13°C° 0 mm 2 mps 765 mmHg 75%

    28 January, Tuesday

    Time Temperature Precipitation Wind Pressure Humidity
    00:00 +13°C° 0 mm 2 mps 765 mmHg 73%
    01:00 +13°C° 0 mm 2 mps 764 mmHg 72%
    02:00 +13°C° 0 mm 2 mps 764 mmHg 71%
    03:00 +13°C° 0 mm 2 mps 764 mmHg 70%
    04:00 +13°C° 0 mm 2 mps 763 mmHg 70%
    05:00 +13°C° 0 mm 2 mps 763 mmHg 70%
    06:00 +14°C° 0 mm 2 mps 763 mmHg 67%
    07:00 +14°C° 0 mm 2 mps 763 mmHg 63%
    08:00 +15°C° 0 mm 1 mps 764 mmHg 60%
    09:00 +16°C° 0 mm 1 mps 763 mmHg 54%
    10:00 +19°C° 0 mm 1 mps 763 mmHg 47%
    11:00 +20°C° 0 mm 1 mps 763 mmHg 40%
    12:00 +20°C° 0 mm 1 mps 762 mmHg 42%
    13:00 +19°C° 0 mm 2 mps 762 mmHg 43%
    14:00 +20°C° 0 mm 2 mps 761 mmHg 44%
    15:00 +19°C° 0 mm 2 mps 761 mmHg 49%
    16:00 +18°C° 0 mm 2 mps 761 mmHg 54%
    17:00 +18°C° 0 mm 1 mps 761 mmHg 60%
    18:00 +16°C° 0 mm 1 mps 761 mmHg 58%
    19:00 +16°C° 0 mm 1 mps 761 mmHg 57%
    20:00 +16°C° 0 mm 1 mps 761 mmHg 56%
    21:00 +16°C° 0 mm 1 mps 761 mmHg 52%
    22:00 +16°C° 0 mm 2 mps 761 mmHg 48%
    23:00 +16°C° 0 mm 2 mps 761 mmHg 44%
    Show more